Powrót do katalogu

NAVSTAR 61

USA 199

AktywnyNawigacjaHEO
NORAD 32384·PAYLOAD·🇺🇸 United States

Wystrzelony Dec 20, 2007 z Cape Canaveral Space Force Station

Loading…

Następne Przeloty (najbliższe 24 godziny)

TLE

ŚwieżeSource: CelesTrak SupGP

Epoka: Sep 16, 2026, 16:44 UTC

1 32384C 07062A   26259.69756944  .00000000  00000+0  00000+0 0  2596
2 32384  54.9639 270.4668 0035891 170.2361 124.8404  2.00565463    12

Śledź NAVSTAR 61 w czasie rzeczywistym z AllMySat

Download on the App Store